When you browse on this site, cookies collect data to enhance your experience and personalize the content and advertising you see.
Visit our Privacy Policy to learn more. By continuing to use the site, you agree to this use of cookies and data.
  • In Hungary
  • List of Countries
  • For 7 days
  • Water Temperature
  • Satellite Maps
  • Weather Map
  • News
  • Weather Widgets
  • user-avatar
    Login

    Hourly Weather Vyden'

    Today, 18 July, Thursday

    Time Temperature Precipitation Wind Pressure Humidity
    00:00 +10°C° 0 mm 2 mps 738 mmHg 93%
    01:00 +9°C° 0 mm 3 mps 738 mmHg 93%
    02:00 +9°C° 0 mm 2 mps 738 mmHg 93%
    03:00 +9°C° 0 mm 3 mps 739 mmHg 94%
    04:00 +9°C° 0 mm 3 mps 739 mmHg 95%
    05:00 +9°C° 0 mm 3 mps 739 mmHg 96%
    06:00 +11°C° 0 mm 3 mps 739 mmHg 92%
    07:00 +13°C° 0 mm 4 mps 739 mmHg 87%
    08:00 +15°C° 0 mm 4 mps 739 mmHg 84%
    09:00 +16°C° 0.3 mm 5 mps 739 mmHg 80%
    10:00 +17°C° 0.3 mm 5 mps 739 mmHg 76%
    11:00 +19°C° 0.3 mm 5 mps 739 mmHg 73%
    12:00 +19°C° 0.2 mm 5 mps 739 mmHg 70%
    13:00 +20°C° 0.2 mm 5 mps 739 mmHg 68%
    14:00 +21°C° 0.2 mm 6 mps 739 mmHg 66%
    15:00 +20°C° 0.4 mm 5 mps 740 mmHg 68%
    16:00 +20°C° 0.4 mm 5 mps 740 mmHg 70%
    17:00 +20°C° 0.4 mm 5 mps 740 mmHg 72%
    18:00 +19°C° 0.1 mm 4 mps 740 mmHg 77%
    19:00 +17°C° 0.1 mm 3 mps 740 mmHg 82%
    20:00 +16°C° 0.1 mm 3 mps 740 mmHg 87%
    21:00 +16°C° 0 mm 3 mps 741 mmHg 89%
    22:00 +14°C° 0 mm 3 mps 741 mmHg 91%
    23:00 +13°C° 0 mm 3 mps 741 mmHg 92%

    Tomorrow, 19 July, Friday

    Time Temperature Precipitation Wind Pressure Humidity
    00:00 +13°C° 0 mm 3 mps 742 mmHg 93%
    01:00 +13°C° 0 mm 3 mps 742 mmHg 94%
    02:00 +12°C° 0 mm 3 mps 742 mmHg 94%
    03:00 +12°C° 0 mm 3 mps 742 mmHg 95%
    04:00 +12°C° 0 mm 3 mps 742 mmHg 95%
    05:00 +12°C° 0 mm 3 mps 742 mmHg 96%
    06:00 +13°C° 0 mm 3 mps 743 mmHg 91%
    07:00 +16°C° 0 mm 3 mps 743 mmHg 86%
    08:00 +18°C° 0 mm 3 mps 744 mmHg 82%
    09:00 +19°C° 0 mm 3 mps 744 mmHg 74%
    10:00 +21°C° 0 mm 3 mps 744 mmHg 67%
    11:00 +22°C° 0 mm 3 mps 744 mmHg 60%
    12:00 +24°C° 0 mm 3 mps 744 mmHg 58%
    13:00 +25°C° 0 mm 3 mps 744 mmHg 56%
    14:00 +25°C° 0 mm 3 mps 743 mmHg 54%
    15:00 +25°C° 0.4 mm 3 mps 743 mmHg 58%
    16:00 +24°C° 0.4 mm 3 mps 743 mmHg 62%
    17:00 +24°C° 0.4 mm 3 mps 744 mmHg 66%
    18:00 +21°C° 0.1 mm 2 mps 744 mmHg 71%
    19:00 +20°C° 0.1 mm 2 mps 744 mmHg 76%
    20:00 +19°C° 0.1 mm 1 mps 744 mmHg 81%
    21:00 +18°C° 0 mm 1 mps 744 mmHg 83%
    22:00 +18°C° 0 mm 1 mps 745 mmHg 85%
    23:00 +16°C° 0 mm 1 mps 745 mmHg 87%

    Day after tomorrow, 20 July, Saturday

    Time Temperature Precipitation Wind Pressure Humidity
    00:00 +15°C° 0 mm 1 mps 745 mmHg 88%
    01:00 +15°C° 0 mm 1 mps 745 mmHg 89%
    02:00 +15°C° 0 mm 1 mps 745 mmHg 90%
    03:00 +15°C° 0 mm 1 mps 745 mmHg 90%
    04:00 +15°C° 0 mm 1 mps 745 mmHg 91%
    05:00 +14°C° 0 mm 1 mps 746 mmHg 91%
    06:00 +16°C° 0 mm 1 mps 746 mmHg 87%
    07:00 +19°C° 0 mm 1 mps 746 mmHg 82%
    08:00 +20°C° 0 mm 1 mps 746 mmHg 77%
    09:00 +22°C° 0 mm 1 mps 746 mmHg 71%
    10:00 +23°C° 0 mm 1 mps 747 mmHg 64%
    11:00 +24°C° 0 mm 1 mps 747 mmHg 57%
    12:00 +25°C° 0 mm 1 mps 747 mmHg 56%
    13:00 +25°C° 0 mm 1 mps 747 mmHg 54%
    14:00 +25°C° 0 mm 1 mps 746 mmHg 53%
    15:00 +25°C° 0 mm 1 mps 747 mmHg 54%
    16:00 +25°C° 0 mm 1 mps 747 mmHg 56%
    17:00 +25°C° 0 mm 1 mps 747 mmHg 57%
    18:00 +23°C° 0 mm 1 mps 747 mmHg 60%
    19:00 +22°C° 0 mm 1 mps 747 mmHg 63%
    20:00 +20°C° 0 mm 1 mps 747 mmHg 66%
    21:00 +17°C° 0 mm 0 mps 747 mmHg 68%
    22:00 +16°C° 0 mm 0 mps 747 mmHg 71%
    23:00 +16°C° 0 mm 0 mps 747 mmHg 73%

    21 July, Sunday

    Time Temperature Precipitation Wind Pressure Humidity
    00:00 +15°C° 0 mm 0 mps 747 mmHg 75%
    01:00 +15°C° 0 mm 0 mps 747 mmHg 77%
    02:00 +14°C° 0 mm 0 mps 747 mmHg 79%
    03:00 +14°C° 0 mm 0 mps 747 mmHg 79%
    04:00 +14°C° 0 mm 0 mps 747 mmHg 79%
    05:00 +14°C° 0 mm 0 mps 747 mmHg 80%
    06:00 +16°C° 0 mm 0 mps 748 mmHg 74%
    07:00 +18°C° 0 mm 0 mps 748 mmHg 69%
    08:00 +20°C° 0 mm 0 mps 748 mmHg 64%
    09:00 +23°C° 0 mm 1 mps 748 mmHg 60%
    10:00 +25°C° 0 mm 1 mps 748 mmHg 56%
    11:00 +26°C° 0 mm 1 mps 748 mmHg 52%
    12:00 +26°C° 0 mm 2 mps 748 mmHg 51%
    13:00 +27°C° 0 mm 2 mps 747 mmHg 51%
    14:00 +27°C° 0 mm 2 mps 747 mmHg 50%
    15:00 +27°C° 0 mm 2 mps 747 mmHg 52%
    16:00 +27°C° 0 mm 2 mps 746 mmHg 54%
    17:00 +27°C° 0 mm 2 mps 746 mmHg 57%
    18:00 +25°C° 0.1 mm 2 mps 746 mmHg 64%
    19:00 +24°C° 0.1 mm 2 mps 746 mmHg 72%
    20:00 +21°C° 0.1 mm 2 mps 745 mmHg 79%
    21:00 +20°C° 0 mm 2 mps 745 mmHg 82%
    22:00 +20°C° 0 mm 2 mps 745 mmHg 85%
    23:00 +19°C° 0 mm 3 mps 745 mmHg 88%

    22 July, Monday

    Time Temperature Precipitation Wind Pressure Humidity
    00:00 +19°C° 0.2 mm 2 mps 745 mmHg 91%
    01:00 +19°C° 0.2 mm 2 mps 745 mmHg 93%
    02:00 +18°C° 0.2 mm 2 mps 745 mmHg 95%
    03:00 +19°C° 0.5 mm 3 mps 745 mmHg 95%
    04:00 +19°C° 0.5 mm 3 mps 744 mmHg 95%
    05:00 +19°C° 0.5 mm 4 mps 744 mmHg 95%
    06:00 +19°C° 0 mm 4 mps 744 mmHg 92%
    07:00 +20°C° 0 mm 4 mps 745 mmHg 88%
    08:00 +21°C° 0 mm 4 mps 745 mmHg 85%
    09:00 +22°C° 0 mm 4 mps 745 mmHg 79%
    10:00 +25°C° 0 mm 4 mps 745 mmHg 74%
    11:00 +26°C° 0 mm 4 mps 745 mmHg 68%
    12:00 +26°C° 0.2 mm 5 mps 745 mmHg 66%
    13:00 +27°C° 0.2 mm 5 mps 745 mmHg 63%
    14:00 +27°C° 0.2 mm 5 mps 744 mmHg 60%
    15:00 +27°C° 0.4 mm 5 mps 744 mmHg 62%
    16:00 +27°C° 0.4 mm 4 mps 744 mmHg 64%
    17:00 +27°C° 0.4 mm 4 mps 744 mmHg 66%
    18:00 +25°C° 0 mm 4 mps 744 mmHg 71%
    19:00 +22°C° 0 mm 4 mps 744 mmHg 76%
    20:00 +20°C° 0 mm 3 mps 745 mmHg 81%
    21:00 +20°C° 0 mm 3 mps 744 mmHg 84%
    22:00 +19°C° 0 mm 3 mps 744 mmHg 87%
    23:00 +18°C° 0 mm 3 mps 744 mmHg 90%

    23 July, Tuesday

    Time Temperature Precipitation Wind Pressure Humidity
    00:00 +18°C° 0 mm 3 mps 744 mmHg 92%
    01:00 +17°C° 0 mm 3 mps 744 mmHg 93%
    02:00 +17°C° 0 mm 3 mps 744 mmHg 95%
    03:00 +17°C° 0 mm 3 mps 744 mmHg 95%
    04:00 +17°C° 0 mm 3 mps 744 mmHg 96%
    05:00 +17°C° 0 mm 3 mps 744 mmHg 96%
    06:00 +17°C° 0 mm 4 mps 744 mmHg 92%
    07:00 +18°C° 0 mm 4 mps 744 mmHg 88%
    08:00 +19°C° 0 mm 4 mps 744 mmHg 84%
    09:00 +20°C° 0 mm 5 mps 744 mmHg 82%
    10:00 +20°C° 0 mm 5 mps 744 mmHg 79%
    11:00 +21°C° 0 mm 5 mps 744 mmHg 76%
    12:00 +21°C° 0.3 mm 5 mps 744 mmHg 74%
    13:00 +22°C° 0.3 mm 6 mps 743 mmHg 72%
    14:00 +22°C° 0.3 mm 6 mps 743 mmHg 70%
    15:00 +23°C° 0.1 mm 6 mps 743 mmHg 69%
    16:00 +23°C° 0.1 mm 5 mps 743 mmHg 68%
    17:00 +23°C° 0.1 mm 5 mps 743 mmHg 67%
    18:00 +21°C° 0.1 mm 5 mps 743 mmHg 73%
    19:00 +20°C° 0.1 mm 4 mps 743 mmHg 80%
    20:00 +18°C° 0.1 mm 3 mps 743 mmHg 87%
    21:00 +18°C° 0.1 mm 3 mps 743 mmHg 90%
    22:00 +17°C° 0.1 mm 3 mps 743 mmHg 93%
    23:00 +17°C° 0.1 mm 3 mps 743 mmHg 96%
    Show more